| time (UTC) | temp F | wind direction | speed MPH | gust MPH | rain 1hr in | rain 24hr in | rain mn in | humidity % | barometer mb |
| 20260831161604 | 92 | 0 | 0.0 | 1.0 | 0.00 | 0.00 | 0.00 | 39 | 1017.8 |
| 20260831161030 | 91 | 0 | 0.0 | 3.0 | 0.00 | 0.00 | 0.00 | 39 | 1017.8 |
| 20260831160532 | 91 | 0 | 0.0 | 3.0 | 0.00 | 0.00 | 0.00 | 41 | 1017.8 |
| 20260831160105 | 90 | 16 | 0.0 | 1.0 | 0.00 | 0.00 | 0.00 | 39 | 1017.7 |
| 20260831155530 | 90 | 0 | 0.0 | 0.0 | 0.00 | 0.00 | 0.00 | 38 | 1017.8 |
| 20260831155031 | 89 | 0 | 0.0 | 0.0 | 0.00 | 0.00 | 0.00 | 42 | 1017.8 |
| 20260831154624 | 89 | 0 | 0.0 | 0.0 | 0.00 | 0.00 | 0.00 | 43 | 1017.7 |
| 20260831154032 | 88 | 0 | 0.0 | 1.0 | 0.00 | 0.00 | 0.00 | 45 | 1017.7 |
| 20260831153531 | 88 | 0 | 0.0 | 1.0 | 0.00 | 0.00 | 0.00 | 46 | 1017.6 |
| 20260831153058 | 88 | 0 | 0.0 | 0.0 | 0.00 | 0.00 | 0.00 | 46 | 1017.7 |
| 20260831152531 | 87 | 0 | 0.0 | 0.0 | 0.00 | 0.00 | 0.00 | 45 | 1017.7 |
| 20260831152030 | 87 | 0 | 0.0 | 0.0 | 0.00 | 0.00 | 0.00 | 47 | 1017.7 |
| 20260831151559 | 87 | 0 | 0.0 | 0.0 | 0.00 | 0.00 | 0.00 | 48 | 1017.6 |
| 20260831151031 | 87 | 0 | 0.0 | 0.0 | 0.00 | 0.00 | 0.00 | 48 | 1017.6 |
| 20260831150530 | 86 | 0 | 0.0 | 1.0 | 0.00 | 0.00 | 0.00 | 49 | 1017.6 |
| 20260831145530 | 86 | 0 | 0.0 | 1.0 | 0.00 | 0.00 | 0.00 | 49 | 1017.6 |
| 20260831145031 | 85 | 0 | 0.0 | 0.0 | 0.00 | 0.00 | 0.00 | 51 | 1017.5 |
| 20260831144559 | 85 | 0 | 0.0 | 1.0 | 0.00 | 0.00 | 0.00 | 52 | 1017.6 |
| 20260831144029 | 84 | 0 | 0.0 | 1.0 | 0.00 | 0.00 | 0.00 | 52 | 1017.4 |
| 20260831143529 | 84 | 0 | 0.0 | 3.0 | 0.00 | 0.00 | 0.00 | 53 | 1017.5 |
| 20260831143117 | 84 | 0 | 0.0 | 3.0 | 0.00 | 0.00 | 0.00 | 54 | 1017.5 |
| 20260831142532 | 83 | 0 | 0.0 | 3.0 | 0.00 | 0.00 | 0.00 | 55 | 1017.5 |
| 20260831142028 | 83 | 0 | 0.0 | 1.0 | 0.00 | 0.00 | 0.00 | 56 | 1017.5 |
| 20260831141602 | 82 | 0 | 0.0 | 1.0 | 0.00 | 0.00 | 0.00 | 57 | 1017.6 |
| 20260831141028 | 82 | 0 | 0.0 | 1.0 | 0.00 | 0.00 | 0.00 | 57 | 1017.6 |
| 20260831140530 | 81 | 0 | 0.0 | 1.0 | 0.00 | 0.00 | 0.00 | 58 | 1017.5 |
| 20260831135530 | 80 | 0 | 0.0 | 0.0 | 0.00 | 0.00 | 0.00 | 59 | 1017.4 |
| 20260831135031 | 79 | 0 | 0.0 | 0.0 | 0.00 | 0.00 | 0.00 | 60 | 1017.3 |
| 20260831134603 | 78 | 0 | 0.0 | 0.0 | 0.00 | 0.00 | 0.00 | 61 | 1017.3 |
| 20260831134029 | 77 | 0 | 0.0 | 0.0 | 0.00 | 0.00 | 0.00 | 62 | 1017.3 |
| 20260831133530 | 76 | 0 | 0.0 | 0.0 | 0.00 | 0.00 | 0.00 | 63 | 1017.2 |
| 20260831133058 | 76 | 0 | 0.0 | 0.0 | 0.00 | 0.00 | 0.00 | 63 | 1017.1 |
| 20260831132529 | 75 | 0 | 0.0 | 0.0 | 0.00 | 0.00 | 0.00 | 64 | 1017.2 |
| 20260831132034 | 75 | 0 | 0.0 | 0.0 | 0.00 | 0.00 | 0.00 | 65 | 1017.1 |
| 20260831131554 | 75 | 0 | 0.0 | 0.0 | 0.00 | 0.00 | 0.00 | 65 | 1017.0 |
| 20260831131030 | 74 | 0 | 0.0 | 0.0 | 0.00 | 0.00 | 0.00 | 65 | 1017.0 |
| 20260831130530 | 74 | 0 | 0.0 | 0.0 | 0.00 | 0.00 | 0.00 | 65 | 1016.9 |
| 20260831130055 | 74 | 0 | 0.0 | 0.0 | 0.00 | 0.00 | 0.00 | 65 | 1016.9 |
| 20260831125529 | 74 | 0 | 0.0 | 0.0 | 0.00 | 0.04 | 0.00 | 65 | 1016.9 |
| 20260831125029 | 74 | 0 | 0.0 | 0.0 | 0.00 | 0.04 | 0.00 | 64 | 1016.8 |
| 20260831124602 | 74 | 0 | 0.0 | 0.0 | 0.00 | 0.04 | 0.00 | 64 | 1016.7 |
| 20260831124029 | 74 | 0 | 0.0 | 0.0 | 0.00 | 0.04 | 0.00 | 64 | 1016.6 |
| 20260831123529 | 74 | 0 | 0.0 | 0.0 | 0.00 | 0.04 | 0.00 | 64 | 1016.5 |
| 20260831123054 | 74 | 0 | 0.0 | 0.0 | 0.00 | 0.04 | 0.00 | 64 | 1016.4 |
| 20260831122531 | 74 | 0 | 0.0 | 0.0 | 0.00 | 0.04 | 0.00 | 64 | 1016.2 |
| 20260831122031 | 74 | 0 | 0.0 | 0.0 | 0.00 | 0.04 | 0.00 | 64 | 1016.0 |
| 20260831121558 | 74 | 0 | 0.0 | 0.0 | 0.00 | 0.04 | 0.00 | 64 | 1016.0 |
| 20260831121030 | 74 | 0 | 0.0 | 0.0 | 0.00 | 0.04 | 0.00 | 63 | 1016.0 |
| 20260831120532 | 74 | 0 | 0.0 | 0.0 | 0.00 | 0.04 | 0.00 | 63 | 1016.0 |
| 20260831115532 | 74 | 0 | 0.0 | 0.0 | 0.00 | 0.18 | 0.00 | 64 | 1015.9 |
| 20260831115029 | 74 | 0 | 0.0 | 0.0 | 0.00 | 0.18 | 0.00 | 64 | 1015.9 |
| 20260831114600 | 74 | 0 | 0.0 | 0.0 | 0.00 | 0.18 | 0.00 | 64 | 1015.8 |
| 20260831114029 | 74 | 0 | 0.0 | 0.0 | 0.00 | 0.18 | 0.00 | 64 | 1015.8 |
| 20260831113533 | 74 | 0 | 0.0 | 0.0 | 0.00 | 0.18 | 0.00 | 64 | 1015.6 |
| 20260831113053 | 74 | 0 | 0.0 | 0.0 | 0.00 | 0.18 | 0.00 | 64 | 1015.6 |
| 20260831112528 | 74 | 0 | 0.0 | 0.0 | 0.00 | 0.18 | 0.00 | 63 | 1015.5 |
| 20260831112030 | 74 | 0 | 0.0 | 0.0 | 0.00 | 0.18 | 0.00 | 63 | 1015.4 |
| 20260831111556 | 74 | 0 | 0.0 | 0.0 | 0.00 | 0.18 | 0.00 | 63 | 1015.4 |
| 20260831111029 | 74 | 0 | 0.0 | 0.0 | 0.00 | 0.18 | 0.00 | 62 | 1015.5 |
| 20260831110529 | 74 | 0 | 0.0 | 0.0 | 0.00 | 0.18 | 0.00 | 62 | 1015.4 |
| 20260831110112 | 74 | 0 | 0.0 | 0.0 | 0.00 | 0.18 | 0.00 | 62 | 1015.4 |
| 20260831105530 | 75 | 0 | 0.0 | 0.0 | 0.00 | 0.18 | 0.00 | 61 | 1015.4 |
| 20260831105029 | 75 | 0 | 0.0 | 0.0 | 0.00 | 0.18 | 0.00 | 61 | 1015.4 |
| 20260831104558 | 75 | 0 | 0.0 | 0.0 | 0.00 | 0.18 | 0.00 | 60 | 1015.5 |
| 20260831104028 | 75 | 0 | 0.0 | 0.0 | 0.00 | 0.18 | 0.00 | 60 | 1015.4 |
| 20260831103530 | 75 | 0 | 0.0 | 0.0 | 0.00 | 0.18 | 0.00 | 59 | 1015.5 |
| 20260831103056 | 76 | 0 | 0.0 | 0.0 | 0.00 | 0.18 | 0.00 | 59 | 1015.5 |
| 20260831102530 | 76 | 0 | 0.0 | 0.0 | 0.00 | 0.18 | 0.00 | 59 | 1015.4 |
| 20260831102033 | 76 | 0 | 0.0 | 0.0 | 0.00 | 0.18 | 0.00 | 58 | 1015.4 |
| 20260831101556 | 76 | 0 | 0.0 | 0.0 | 0.00 | 0.18 | 0.00 | 58 | 1015.5 |
| 20260831101031 | 76 | 0 | 0.0 | 0.0 | 0.00 | 0.18 | 0.00 | 58 | 1015.4 |
| 20260831100530 | 77 | 0 | 0.0 | 0.0 | 0.00 | 0.18 | 0.00 | 57 | 1015.4 |
| 20260831100051 | 77 | 0 | 0.0 | 0.0 | 0.00 | 0.18 | 0.00 | 57 | 1015.4 |
| 20260831095529 | 77 | 0 | 0.0 | 0.0 | 0.00 | 0.18 | 0.00 | 56 | 1015.4 |
| 20260831095032 | 77 | 0 | 0.0 | 0.0 | 0.00 | 0.18 | 0.00 | 56 | 1015.3 |
| 20260831094555 | 78 | 0 | 0.0 | 0.0 | 0.00 | 0.18 | 0.00 | 55 | 1015.2 |
| 20260831094031 | 78 | 0 | 0.0 | 0.0 | 0.00 | 0.18 | 0.00 | 55 | 1015.3 |
| 20260831093530 | 78 | 0 | 0.0 | 0.0 | 0.00 | 0.18 | 0.00 | 55 | 1015.3 |
| 20260831093100 | 78 | 0 | 0.0 | 0.0 | 0.00 | 0.18 | 0.00 | 55 | 1015.4 |
| 20260831092530 | 79 | 0 | 0.0 | 0.0 | 0.00 | 0.18 | 0.00 | 55 | 1015.3 |
| 20260831092029 | 79 | 0 | 0.0 | 0.0 | 0.00 | 0.18 | 0.00 | 54 | 1015.3 |
| 20260831091600 | 79 | 0 | 0.0 | 0.0 | 0.00 | 0.18 | 0.00 | 54 | 1015.2 |
| 20260831091032 | 79 | 0 | 0.0 | 0.0 | 0.00 | 0.18 | 0.00 | 54 | 1015.1 |
| 20260831090528 | 79 | 0 | 0.0 | 0.0 | 0.00 | 0.18 | 0.00 | 54 | 1015.2 |
| 20260831090058 | 79 | 0 | 0.0 | 0.0 | 0.00 | 0.18 | 0.00 | 53 | 1015.1 |
| 20260831085531 | 79 | 0 | 0.0 | 0.0 | 0.00 | 0.18 | 0.00 | 53 | 1015.1 |
| 20260831085031 | 80 | 0 | 0.0 | 0.0 | 0.00 | 0.18 | 0.00 | 53 | 1015.0 |
| 20260831084552 | 80 | 0 | 0.0 | 0.0 | 0.00 | 0.18 | 0.00 | 52 | 1014.9 |
| 20260831084029 | 80 | 0 | 0.0 | 0.0 | 0.00 | 0.18 | 0.00 | 52 | 1014.9 |
| 20260831083527 | 80 | 0 | 0.0 | 0.0 | 0.00 | 0.18 | 0.00 | 52 | 1015.0 |
| 20260831083059 | 80 | 0 | 0.0 | 0.0 | 0.00 | 0.18 | 0.00 | 51 | 1015.0 |
| 20260831082529 | 80 | 0 | 0.0 | 0.0 | 0.00 | 0.18 | 0.00 | 51 | 1014.9 |
| 20260831082029 | 80 | 0 | 0.0 | 0.0 | 0.00 | 0.18 | 0.00 | 50 | 1015.0 |
| 20260831081554 | 80 | 0 | 0.0 | 0.0 | 0.00 | 0.18 | 0.00 | 50 | 1015.0 |
| 20260831081029 | 80 | 0 | 0.0 | 0.0 | 0.00 | 0.18 | 0.00 | 50 | 1015.0 |
| 20260831080528 | 81 | 0 | 0.0 | 0.0 | 0.00 | 0.18 | 0.00 | 50 | 1014.9 |
| 20260831080105 | 81 | 0 | 0.0 | 0.0 | 0.00 | 0.18 | 0.00 | 49 | 1014.9 |
| 20260831075531 | 80 | 0 | 0.0 | 0.0 | 0.00 | 0.18 | 0.00 | 49 | 1015.0 |
| 20260831075030 | 80 | 0 | 0.0 | 0.0 | 0.00 | 0.18 | 0.00 | 49 | 1014.9 |
| 20260831074602 | 80 | 0 | 0.0 | 0.0 | 0.00 | 0.18 | 0.00 | 49 | 1014.8 |
| 20260831074031 | 81 | 0 | 0.0 | 0.0 | 0.00 | 0.18 | 0.00 | 48 | 1014.9 |
| 20260831073528 | 80 | 0 | 0.0 | 0.0 | 0.00 | 0.18 | 0.00 | 48 | 1014.9 |
| 20260831073054 | 80 | 0 | 0.0 | 0.0 | 0.00 | 0.18 | 0.00 | 48 | 1014.8 |
| 20260831072528 | 80 | 0 | 0.0 | 0.0 | 0.00 | 0.18 | 0.00 | 49 | 1014.9 |
| 20260831072030 | 80 | 0 | 0.0 | 0.0 | 0.00 | 0.18 | 0.00 | 49 | 1014.9 |
| 20260831071552 | 79 | 0 | 0.0 | 0.0 | 0.00 | 0.18 | 0.00 | 50 | 1014.9 |
| 20260831071028 | 79 | 0 | 0.0 | 0.0 | 0.00 | 0.18 | 0.00 | 50 | 1014.9 |
| 20260831070529 | 79 | 0 | 0.0 | 0.0 | 0.00 | 0.18 | 0.00 | 51 | 1015.0 |
| 20260831070057 | 79 | 0 | 0.0 | 0.0 | 0.00 | 0.18 | 0.00 | 51 | 1015.0 |
| 20260831065530 | 79 | 0 | 0.0 | 0.0 | 0.00 | 0.18 | 0.00 | 52 | 1015.0 |
| 20260831065030 | 79 | 0 | 0.0 | 0.0 | 0.00 | 0.18 | 0.00 | 50 | 1015.0 |
| 20260831064609 | 79 | 0 | 0.0 | 0.0 | 0.00 | 0.18 | 0.00 | 50 | 1015.0 |
| 20260831064035 | 79 | 0 | 0.0 | 0.0 | 0.00 | 0.18 | 0.00 | 50 | 1015.0 |
| 20260831063529 | 79 | 0 | 0.0 | 0.0 | 0.00 | 0.18 | 0.00 | 49 | 1015.0 |
| 20260831063056 | 79 | 0 | 0.0 | 0.0 | 0.00 | 0.18 | 0.00 | 48 | 1014.9 |
| 20260831062529 | 79 | 0 | 0.0 | 0.0 | 0.00 | 0.18 | 0.00 | 48 | 1014.9 |
| 20260831062033 | 79 | 0 | 0.0 | 0.0 | 0.00 | 0.18 | 0.00 | 48 | 1014.9 |
| 20260831061555 | 79 | 0 | 0.0 | 0.0 | 0.00 | 0.18 | 0.00 | 49 | 1015.0 |
| 20260831061032 | 79 | 0 | 0.0 | 0.0 | 0.00 | 0.18 | 0.00 | 49 | 1015.0 |
| 20260831060529 | 79 | 0 | 0.0 | 0.0 | 0.00 | 0.18 | 0.00 | 48 | 1014.9 |
| 20260831060059 | 79 | 0 | 0.0 | 0.0 | 0.00 | 0.18 | 0.00 | 49 | 1015.0 |
| 20260831055529 | 79 | 0 | 0.0 | 0.0 | 0.00 | 0.18 | 0.00 | 49 | 1015.0 |
| 20260831055034 | 79 | 0 | 0.0 | 0.0 | 0.00 | 0.18 | 0.00 | 49 | 1015.0 |
| 20260831054603 | 79 | 0 | 0.0 | 0.0 | 0.00 | 0.18 | 0.00 | 49 | 1014.9 |
| 20260831054034 | 80 | 0 | 0.0 | 0.0 | 0.00 | 0.18 | 0.00 | 50 | 1014.8 |
| 20260831053529 | 80 | 0 | 0.0 | 0.0 | 0.00 | 0.18 | 0.00 | 49 | 1014.9 |
| 20260831053105 | 80 | 0 | 0.0 | 0.0 | 0.00 | 0.18 | 0.00 | 48 | 1014.8 |
| 20260831052529 | 80 | 0 | 0.0 | 0.0 | 0.00 | 0.18 | 0.00 | 48 | 1014.9 |
| 20260831052029 | 80 | 0 | 0.0 | 0.0 | 0.00 | 0.18 | 0.00 | 48 | 1014.8 |
| 20260831051554 | 80 | 0 | 0.0 | 0.0 | 0.00 | 0.18 | 0.00 | 48 | 1014.8 |
| 20260831051031 | 80 | 0 | 0.0 | 0.0 | 0.00 | 0.18 | 0.00 | 47 | 1014.7 |
| 20260831050530 | 80 | 0 | 0.0 | 0.0 | 0.00 | 0.18 | 0.00 | 47 | 1014.7 |
| 20260831050100 | 80 | 0 | 0.0 | 0.0 | 0.00 | 0.18 | 0.00 | 47 | 1014.7 |
| 20260831045529 | 80 | 0 | 0.0 | 0.0 | 0.00 | 0.18 | 0.18 | 47 | 1014.7 |
| 20260831045030 | 81 | 0 | 0.0 | 0.0 | 0.00 | 0.18 | 0.18 | 48 | 1014.7 |
| 20260831044633 | 81 | 0 | 0.0 | 0.0 | 0.00 | 0.18 | 0.18 | 48 | 1014.6 |
| 20260831044030 | 81 | 0 | 0.0 | 0.0 | 0.00 | 0.18 | 0.18 | 47 | 1014.5 |
| 20260831043530 | 81 | 0 | 0.0 | 0.0 | 0.00 | 0.18 | 0.18 | 48 | 1014.5 |
| 20260831043056 | 81 | 0 | 0.0 | 0.0 | 0.00 | 0.18 | 0.18 | 47 | 1014.5 |
| 20260831042529 | 82 | 0 | 0.0 | 0.0 | 0.00 | 0.18 | 0.18 | 48 | 1014.6 |
| 20260831042029 | 82 | 0 | 0.0 | 0.0 | 0.00 | 0.18 | 0.18 | 47 | 1014.6 |
| 20260831041611 | 82 | 0 | 0.0 | 0.0 | 0.00 | 0.18 | 0.18 | 46 | 1014.6 |
| 20260831041030 | 82 | 0 | 0.0 | 0.0 | 0.00 | 0.18 | 0.18 | 45 | 1014.6 |
| 20260831040532 | 82 | 0 | 0.0 | 0.0 | 0.00 | 0.18 | 0.18 | 45 | 1014.6 |
| 20260831040056 | 82 | 0 | 0.0 | 0.0 | 0.00 | 0.18 | 0.18 | 46 | 1014.5 |
| 20260831035528 | 83 | 0 | 0.0 | 0.0 | 0.00 | 0.18 | 0.18 | 45 | 1014.5 |
| 20260831035029 | 83 | 0 | 0.0 | 0.0 | 0.00 | 0.18 | 0.18 | 45 | 1014.4 |
| 20260831034554 | 83 | 0 | 0.0 | 0.0 | 0.00 | 0.18 | 0.18 | 44 | 1014.3 |
| 20260831034032 | 83 | 0 | 0.0 | 0.0 | 0.00 | 0.18 | 0.18 | 44 | 1014.3 |
| 20260831033529 | 84 | 0 | 0.0 | 0.0 | 0.00 | 0.18 | 0.18 | 44 | 1014.2 |
| 20260831033051 | 84 | 0 | 0.0 | 0.0 | 0.00 | 0.18 | 0.18 | 43 | 1014.2 |
| 20260831032532 | 84 | 0 | 0.0 | 0.0 | 0.00 | 0.18 | 0.18 | 43 | 1014.2 |
| 20260831032030 | 85 | 0 | 0.0 | 0.0 | 0.00 | 0.18 | 0.18 | 43 | 1014.2 |
| 20260831031555 | 85 | 0 | 0.0 | 0.0 | 0.00 | 0.18 | 0.18 | 43 | 1014.2 |
| 20260831031029 | 85 | 0 | 0.0 | 0.0 | 0.00 | 0.18 | 0.18 | 43 | 1014.2 |
| 20260831030532 | 86 | 0 | 0.0 | 0.0 | 0.00 | 0.18 | 0.18 | 42 | 1014.1 |
| 20260831030054 | 86 | 0 | 0.0 | 0.0 | 0.00 | 0.18 | 0.18 | 41 | 1014.1 |
| 20260831025531 | 86 | 0 | 0.0 | 0.0 | 0.00 | 0.18 | 0.18 | 40 | 1014.0 |
| 20260831025030 | 86 | 0 | 0.0 | 0.0 | 0.00 | 0.18 | 0.18 | 39 | 1013.9 |
| 20260831024606 | 86 | 0 | 0.0 | 0.0 | 0.00 | 0.18 | 0.18 | 39 | 1013.9 |
| 20260831024030 | 87 | 0 | 0.0 | 0.0 | 0.00 | 0.18 | 0.18 | 39 | 1013.8 |
| 20260831023530 | 87 | 0 | 0.0 | 0.0 | 0.00 | 0.18 | 0.18 | 38 | 1013.7 |
| 20260831023104 | 87 | 0 | 0.0 | 0.0 | 0.00 | 0.18 | 0.18 | 38 | 1013.6 |
| 20260831022529 | 87 | 0 | 0.0 | 0.0 | 0.00 | 0.18 | 0.18 | 38 | 1013.7 |
| 20260831022029 | 87 | 0 | 0.0 | 0.0 | 0.00 | 0.18 | 0.18 | 38 | 1013.5 |
| 20260831021556 | 88 | 0 | 0.0 | 0.0 | 0.00 | 0.18 | 0.18 | 37 | 1013.5 |
| 20260831021030 | 88 | 0 | 0.0 | 0.0 | 0.00 | 0.18 | 0.18 | 37 | 1013.4 |
| 20260831020530 | 88 | 0 | 0.0 | 0.0 | 0.00 | 0.18 | 0.18 | 37 | 1013.4 |
| 20260831020058 | 88 | 0 | 0.0 | 0.0 | 0.00 | 0.18 | 0.18 | 36 | 1013.4 |
| 20260831015530 | 89 | 0 | 0.0 | 0.0 | 0.00 | 0.18 | 0.18 | 36 | 1013.3 |
| 20260831015030 | 89 | 0 | 0.0 | 0.0 | 0.00 | 0.18 | 0.18 | 35 | 1013.2 |
| 20260831014553 | 90 | 0 | 0.0 | 0.0 | 0.00 | 0.18 | 0.18 | 35 | 1013.1 |
| 20260831014029 | 90 | 0 | 0.0 | 0.0 | 0.00 | 0.18 | 0.18 | 35 | 1013.1 |
| 20260831013529 | 90 | 0 | 0.0 | 0.0 | 0.00 | 0.18 | 0.18 | 34 | 1013.1 |
| 20260831013106 | 91 | 0 | 0.0 | 0.0 | 0.00 | 0.18 | 0.18 | 34 | 1013.1 |
| 20260831012530 | 91 | 0 | 0.0 | 0.0 | 0.00 | 0.18 | 0.18 | 33 | 1013.0 |
| 20260831012030 | 92 | 0 | 0.0 | 0.0 | 0.00 | 0.18 | 0.18 | 32 | 1013.0 |
| 20260831011559 | 92 | 0 | 0.0 | 0.0 | 0.00 | 0.18 | 0.18 | 32 | 1012.9 |
| 20260831011030 | 93 | 0 | 0.0 | 0.0 | 0.00 | 0.18 | 0.18 | 32 | 1012.8 |
| 20260831010531 | 93 | 0 | 0.0 | 0.0 | 0.00 | 0.18 | 0.18 | 31 | 1012.8 |
| 20260831010055 | 93 | 0 | 0.0 | 0.0 | 0.00 | 0.18 | 0.18 | 31 | 1012.7 |
| 20260831005530 | 94 | 0 | 0.0 | 0.0 | 0.00 | 0.18 | 0.18 | 30 | 1012.7 |
| 20260831005028 | 94 | 0 | 0.0 | 0.0 | 0.00 | 0.18 | 0.18 | 30 | 1012.7 |
| 20260831004552 | 95 | 0 | 0.0 | 0.0 | 0.00 | 0.18 | 0.18 | 29 | 1012.6 |
| 20260831004030 | 95 | 0 | 0.0 | 0.0 | 0.00 | 0.18 | 0.18 | 29 | 1012.7 |
| 20260831003530 | 96 | 0 | 0.0 | 0.0 | 0.00 | 0.18 | 0.18 | 28 | 1012.6 |
| 20260831003057 | 96 | 0 | 0.0 | 0.0 | 0.00 | 0.18 | 0.18 | 28 | 1012.7 |
| 20260831002529 | 96 | 0 | 0.0 | 0.0 | 0.00 | 0.18 | 0.18 | 27 | 1012.6 |
| 20260831002029 | 97 | 0 | 0.0 | 0.0 | 0.00 | 0.18 | 0.18 | 27 | 1012.6 |
| 20260831001553 | 97 | 0 | 0.0 | 0.0 | 0.00 | 0.18 | 0.18 | 27 | 1012.7 |
| 20260831001029 | 98 | 0 | 0.0 | 0.0 | 0.00 | 0.18 | 0.18 | 26 | 1012.7 |
| 20260831000529 | 98 | 0 | 0.0 | 0.0 | 0.00 | 0.18 | 0.18 | 26 | 1012.7 |
| 20260831000053 | 99 | 0 | 0.0 | 0.0 | 0.00 | 0.18 | 0.18 | 25 | 1012.7 |
| 20260830235528 | 99 | 0 | 0.0 | 0.0 | 0.00 | 0.18 | 0.18 | 25 | 1012.8 |
| 20260830235027 | 100 | 0 | 0.0 | 0.0 | 0.00 | 0.18 | 0.18 | 24 | 1012.8 |
| 20260830234559 | 100 | 0 | 0.0 | 0.0 | 0.00 | 0.18 | 0.18 | 24 | 1012.8 |
| 20260830234029 | 101 | 0 | 0.0 | 0.0 | 0.00 | 0.18 | 0.18 | 23 | 1012.8 |
| 20260830233530 | 101 | 0 | 0.0 | 0.0 | 0.00 | 0.18 | 0.18 | 23 | 1012.7 |
| 20260830233055 | 101 | 0 | 0.0 | 0.0 | 0.00 | 0.18 | 0.18 | 23 | 1012.9 |
| 20260830232530 | 102 | 0 | 0.0 | 0.0 | 0.00 | 0.18 | 0.18 | 23 | 1012.9 |
| 20260830232031 | 102 | 0 | 0.0 | 0.0 | 0.00 | 0.18 | 0.18 | 23 | 1012.8 |
| 20260830231601 | 102 | 0 | 0.0 | 1.0 | 0.00 | 0.18 | 0.18 | 20 | 1012.8 |
| 20260830231030 | 102 | 0 | 0.0 | 1.0 | 0.00 | 0.18 | 0.18 | 22 | 1012.9 |
| 20260830230529 | 102 | 0 | 0.0 | 1.0 | 0.00 | 0.18 | 0.18 | 19 | 1012.8 |
| 20260830230052 | 102 | 0 | 0.0 | 0.0 | 0.00 | 0.18 | 0.18 | 22 | 1012.9 |
| 20260830225531 | 101 | 0 | 0.0 | 2.0 | 0.00 | 0.18 | 0.18 | 22 | 1012.9 |
| 20260830225030 | 101 | 0 | 0.0 | 2.0 | 0.00 | 0.18 | 0.18 | 21 | 1013.0 |
| 20260830224558 | 101 | 0 | 0.0 | 1.0 | 0.00 | 0.18 | 0.18 | 22 | 1013.0 |
| 20260830224031 | 101 | 0 | 0.0 | 1.0 | 0.00 | 0.18 | 0.18 | 22 | 1013.0 |
| 20260830223530 | 101 | 0 | 0.0 | 1.0 | 0.00 | 0.18 | 0.18 | 21 | 1013.0 |
| 20260830223055 | 101 | 0 | 0.0 | 0.0 | 0.00 | 0.18 | 0.18 | 21 | 1013.1 |
| 20260830222529 | 102 | 0 | 0.0 | 1.0 | 0.00 | 0.18 | 0.18 | 21 | 1013.1 |
| 20260830222030 | 103 | 0 | 0.0 | 1.0 | 0.00 | 0.18 | 0.18 | 20 | 1013.1 |
| 20260830221610 | 103 | 0 | 0.0 | 1.0 | 0.00 | 0.18 | 0.18 | 20 | 1013.2 |
| 20260830221029 | 103 | 0 | 0.0 | 0.0 | 0.00 | 0.18 | 0.18 | 22 | 1013.3 |
| 20260830220530 | 102 | 0 | 0.0 | 0.0 | 0.00 | 0.18 | 0.18 | 24 | 1013.2 |
| 20260830220057 | 101 | 0 | 0.0 | 0.0 | 0.00 | 0.18 | 0.18 | 23 | 1013.3 |
| 20260830215530 | 101 | 0 | 0.0 | 2.0 | 0.00 | 0.18 | 0.18 | 21 | 1013.2 |
| 20260830215034 | 101 | 0 | 0.0 | 2.0 | 0.00 | 0.18 | 0.18 | 21 | 1013.2 |
| 20260830214608 | 102 | 0 | 0.0 | 2.0 | 0.00 | 0.18 | 0.18 | 21 | 1013.3 |
| 20260830214030 | 102 | 0 | 0.0 | 0.0 | 0.00 | 0.18 | 0.18 | 21 | 1013.3 |
| 20260830213529 | 103 | 0 | 0.0 | 0.0 | 0.00 | 0.18 | 0.18 | 20 | 1013.3 |
| 20260830213056 | 103 | 0 | 0.0 | 1.0 | 0.00 | 0.18 | 0.18 | 20 | 1013.4 |
| 20260830212531 | 104 | 0 | 0.0 | 1.0 | 0.00 | 0.18 | 0.18 | 21 | 1013.5 |
| 20260830212031 | 103 | 0 | 0.0 | 1.0 | 0.00 | 0.18 | 0.18 | 19 | 1013.4 |
| 20260830211556 | 103 | 0 | 0.0 | 1.0 | 0.00 | 0.18 | 0.18 | 23 | 1013.5 |
| 20260830211030 | 102 | 0 | 0.0 | 1.0 | 0.00 | 0.18 | 0.18 | 23 | 1013.5 |
| 20260830210530 | 103 | 0 | 0.0 | 3.0 | 0.00 | 0.18 | 0.18 | 18 | 1013.5 |
| 20260830210107 | 103 | 0 | 0.0 | 4.0 | 0.00 | 0.18 | 0.18 | 18 | 1013.7 |
| 20260830205530 | 104 | 0 | 0.0 | 4.0 | 0.00 | 0.18 | 0.18 | 17 | 1013.7 |
| 20260830205029 | 104 | 16 | 0.0 | 1.0 | 0.00 | 0.18 | 0.18 | 18 | 1013.8 |
| 20260830204557 | 104 | 0 | 0.0 | 1.0 | 0.00 | 0.18 | 0.18 | 21 | 1013.9 |
| 20260830204029 | 103 | 0 | 0.0 | 1.0 | 0.00 | 0.18 | 0.18 | 21 | 1013.9 |
| 20260830203530 | 103 | 0 | 0.0 | 3.0 | 0.00 | 0.18 | 0.18 | 21 | 1014.0 |
| 20260830203055 | 104 | 0 | 0.0 | 3.0 | 0.00 | 0.18 | 0.18 | 19 | 1014.1 |
| 20260830202530 | 105 | 0 | 0.0 | 3.0 | 0.00 | 0.18 | 0.18 | 18 | 1014.0 |
| 20260830202034 | 104 | 0 | 0.0 | 2.0 | 0.00 | 0.18 | 0.18 | 22 | 1014.1 |
| 20260830201553 | 103 | 0 | 0.0 | 2.0 | 0.00 | 0.18 | 0.18 | 19 | 1014.2 |
| 20260830201029 | 102 | 0 | 0.0 | 1.0 | 0.00 | 0.18 | 0.18 | 24 | 1014.1 |
| 20260830200529 | 102 | 0 | 0.0 | 2.0 | 0.00 | 0.18 | 0.18 | 22 | 1014.3 |
| 20260830200052 | 102 | 0 | 0.0 | 2.0 | 0.00 | 0.18 | 0.18 | 21 | 1014.4 |
| 20260830195533 | 102 | 0 | 0.0 | 2.0 | 0.00 | 0.18 | 0.18 | 20 | 1014.5 |
| 20260830195030 | 102 | 0 | 0.0 | 2.0 | 0.00 | 0.18 | 0.18 | 21 | 1014.6 |
| 20260830194604 | 102 | 16 | 0.0 | 1.0 | 0.00 | 0.18 | 0.18 | 21 | 1014.5 |
| 20260830194031 | 102 | 0 | 0.0 | 2.0 | 0.00 | 0.18 | 0.18 | 20 | 1014.6 |
| 20260830193530 | 103 | 0 | 0.0 | 2.0 | 0.00 | 0.18 | 0.18 | 20 | 1014.7 |
| 20260830193054 | 102 | 0 | 0.0 | 4.0 | 0.00 | 0.18 | 0.18 | 23 | 1014.7 |
| 20260830192529 | 102 | 0 | 0.0 | 4.0 | 0.00 | 0.18 | 0.18 | 21 | 1014.8 |
| 20260830192029 | 102 | 0 | 0.0 | 4.0 | 0.00 | 0.18 | 0.18 | 20 | 1014.9 |
| 20260830191555 | 103 | 0 | 0.0 | 4.0 | 0.00 | 0.18 | 0.18 | 19 | 1014.9 |
| 20260830191029 | 103 | 16 | 0.0 | 1.0 | 0.00 | 0.18 | 0.18 | 23 | 1014.9 |
| 20260830190529 | 103 | 0 | 0.0 | 1.0 | 0.00 | 0.18 | 0.18 | 24 | 1015.1 |
| 20260830190055 | 102 | 0 | 0.0 | 1.0 | 0.00 | 0.18 | 0.18 | 21 | 1015.2 |
| 20260830185530 | 102 | 0 | 0.0 | 3.0 | 0.00 | 0.18 | 0.18 | 23 | 1015.2 |
| 20260830185029 | 101 | 0 | 0.0 | 3.0 | 0.00 | 0.18 | 0.18 | 22 | 1015.2 |
| 20260830184554 | 101 | 0 | 0.0 | 3.0 | 0.00 | 0.18 | 0.18 | 21 | 1015.4 |
| 20260830184029 | 101 | 16 | 0.0 | 2.0 | 0.00 | 0.18 | 0.18 | 22 | 1015.4 |
| 20260830183529 | 100 | 0 | 0.0 | 2.0 | 0.00 | 0.18 | 0.18 | 23 | 1015.6 |
| 20260830183056 | 99 | 0 | 0.0 | 2.0 | 0.00 | 0.18 | 0.18 | 25 | 1015.6 |
| 20260830182533 | 99 | 0 | 0.0 | 3.0 | 0.00 | 0.18 | 0.18 | 26 | 1015.6 |
| 20260830182033 | 99 | 0 | 0.0 | 3.0 | 0.00 | 0.18 | 0.18 | 25 | 1015.8 |
| 20260830181553 | 99 | 0 | 0.0 | 3.0 | 0.00 | 0.18 | 0.18 | 26 | 1015.8 |
| 20260830181029 | 99 | 0 | 0.0 | 4.0 | 0.00 | 0.18 | 0.18 | 24 | 1015.9 |
| 20260830180529 | 99 | 0 | 0.0 | 4.0 | 0.00 | 0.18 | 0.18 | 23 | 1016.1 |
| 20260830180100 | 100 | 0 | 0.0 | 3.0 | 0.00 | 0.18 | 0.18 | 25 | 1016.1 |
| 20260830175530 | 99 | 0 | 0.0 | 1.0 | 0.00 | 0.18 | 0.18 | 29 | 1016.3 |
| 20260830175029 | 99 | 0 | 0.0 | 3.0 | 0.00 | 0.18 | 0.18 | 25 | 1016.4 |
| 20260830174612 | 98 | 0 | 0.0 | 4.0 | 0.00 | 0.18 | 0.18 | 25 | 1016.5 |
| 20260830174029 | 98 | 0 | 0.0 | 4.0 | 0.00 | 0.18 | 0.18 | 26 | 1016.4 |
| 20260830173528 | 99 | 16 | 0.0 | 4.0 | 0.00 | 0.18 | 0.18 | 26 | 1016.5 |
| 20260830173059 | 98 | 0 | 0.0 | 2.0 | 0.00 | 0.18 | 0.18 | 28 | 1016.7 |
| 20260830172530 | 98 | 0 | 0.0 | 2.0 | 0.00 | 0.18 | 0.18 | 29 | 1016.8 |
| 20260830172030 | 98 | 0 | 0.0 | 2.0 | 0.00 | 0.18 | 0.18 | 29 | 1017.0 |
| 20260830171555 | 97 | 0 | 0.0 | 2.0 | 0.00 | 0.18 | 0.18 | 30 | 1017.0 |
| 20260830171030 | 97 | 0 | 0.0 | 2.0 | 0.00 | 0.18 | 0.18 | 30 | 1017.0 |
| 20260830170530 | 97 | 0 | 0.0 | 1.0 | 0.00 | 0.18 | 0.18 | 28 | 1017.1 |
| 20260830170053 | 96 | 0 | 0.0 | 1.0 | 0.00 | 0.18 | 0.18 | 32 | 1017.2 |
| 20260830165530 | 96 | 0 | 0.0 | 1.0 | 0.00 | 0.18 | 0.18 | 29 | 1017.3 |
| 20260830165029 | 95 | 0 | 0.0 | 1.0 | 0.00 | 0.18 | 0.18 | 34 | 1017.2 |
| 20260830164602 | 95 | 0 | 0.0 | 1.0 | 0.00 | 0.18 | 0.18 | 33 | 1017.3 |
| 20260830164030 | 94 | 0 | 0.0 | 1.0 | 0.00 | 0.18 | 0.18 | 31 | 1017.4 |
| 20260830163530 | 94 | 0 | 0.0 | 1.0 | 0.00 | 0.18 | 0.18 | 33 | 1017.4 |
| 20260830163053 | 93 | 0 | 0.0 | 2.0 | 0.00 | 0.18 | 0.18 | 35 | 1017.4 |
| 20260830162530 | 93 | 0 | 0.0 | 2.0 | 0.00 | 0.18 | 0.18 | 33 | 1017.5 |
| 20260830162029 | 93 | 0 | 0.0 | 1.0 | 0.00 | 0.18 | 0.18 | 35 | 1017.5 |